Weather History for Eureka, AK

Change the Weather History Date:

Friday, June 21, 2013

  Actual Average Record
Temperature  
Mean Temperature 52 °F -  
Max Temperature 62 °F 57 °F 73 °F (2004)
Min Temperature 42 °F 40 °F 35 °F (1999)
Degree Days  
Heating Degree Days 13    
Growing Degree Days 2 (Base 50)    
Moisture  
Dew Point 41 °F    
Average Humidity 68    
Maximum Humidity 100    
Minimum Humidity 39    
Precipitation  
Precipitation 0.00 in - - ()
Sea Level Pressure  
Sea Level Pressure 29.99 in    
Wind  
Wind Speed 12 mph (WSW)    
Max Wind Speed 17 mph    
Max Gust Speed 24 mph    
Visibility 10 miles    
Events      
Averages and records for this station are not official NWS values.
T = Trace of Precipitation, MM = Missing Value Source: NWS Daily Summary

Daily Weather History Graph

Daily Weather History Graph

Search for Another Location

Airport:

Trip Planner

Search our weather history database for the weather conditions in past years. The results will help you decide how hot, cold, wet, or windy it might be!

Date:

Astronomy

Jun. 21, 2013 Rise Set
Actual Time 3:59 AM AKDT 11:41 PM AKDT
Civil Twilight 2:22 AM AKDT 1:18 AM AKDT
Nautical Twilight Sun does not rise Sun does not rise
Astronomical Twilight Sun does not rise Sun does not rise
Moon 9:29 PM AKDT (6/21) 3:04 AM AKDT (6/21)
Length of Visible Light 22h 55m
Length of Day
19h 42m
Waxing Gibbous, 96% of the Moon is Illuminated
Jun 21
Waxing Gibbous
Jun 23
Full
Jun 29
Last Quarter
Jul 7
New
Jul 15
First Quarter

Hourly Weather History & Observations

Time (AKDT) Temp. Windchill Dew Point Humidity Pressure Visibility Wind Dir Wind Speed Gust Speed Precip Events Conditions
12:16 AM 48.2 °F - 41.0 °F 76% 29.98 in 10.0 mi WSW 9.2 mph 16.1 mph N/A   Scattered Clouds
12:36 AM 48.2 °F - 41.0 °F 76% 29.98 in 10.0 mi WSW 12.7 mph - N/A   Mostly Cloudy
12:56 AM 46.4 °F 40.7 °F 41.0 °F 81% 29.98 in 10.0 mi WSW 12.7 mph 17.3 mph N/A   Mostly Cloudy
1:16 AM 46.4 °F 40.7 °F 41.0 °F 81% 29.98 in 10.0 mi WSW 12.7 mph - N/A   Mostly Cloudy
1:36 AM 46.4 °F 40.7 °F 41.0 °F 81% 29.99 in 10.0 mi WSW 12.7 mph 18.4 mph N/A   Scattered Clouds
1:56 AM 46.4 °F 41.1 °F 41.0 °F 81% 29.98 in 10.0 mi WSW 11.5 mph - N/A   Clear
2:16 AM 44.6 °F 37.8 °F 41.0 °F 87% 29.98 in 10.0 mi WSW 15.0 mph 19.6 mph N/A   Clear
2:36 AM 44.6 °F 38.4 °F 42.8 °F 93% 29.99 in 10.0 mi WSW 12.7 mph - N/A   Mostly Cloudy
2:56 AM 44.6 °F 39.2 °F 42.8 °F 93% 29.99 in 10.0 mi WSW 10.4 mph - N/A   Overcast
3:16 AM 44.6 °F 38.8 °F 42.8 °F 93% 29.99 in 10.0 mi West 11.5 mph - N/A   Mostly Cloudy
3:36 AM 44.6 °F 38.8 °F 41.0 °F 87% 29.99 in 10.0 mi WSW 11.5 mph - N/A   Scattered Clouds
3:56 AM 44.6 °F 38.4 °F 42.8 °F 93% 29.99 in 10.0 mi WSW 12.7 mph - N/A   Scattered Clouds
4:16 AM 44.6 °F 38.4 °F 42.8 °F 93% 29.99 in 10.0 mi WSW 12.7 mph 19.6 mph N/A   Mostly Cloudy
4:36 AM 44.6 °F 37.8 °F 42.8 °F 93% 30.00 in 10.0 mi WSW 15.0 mph 20.7 mph N/A   Overcast
4:56 AM 44.6 °F 38.4 °F 42.8 °F 93% 30.00 in 10.0 mi West 12.7 mph - N/A   Scattered Clouds
5:16 AM 44.6 °F 38.1 °F 42.8 °F 93% 30.00 in 10.0 mi WSW 13.8 mph 19.6 mph N/A   Mostly Cloudy
5:36 AM 42.8 °F 35.4 °F 41.0 °F 93% 30.00 in 10.0 mi WSW 15.0 mph 19.6 mph N/A   Mostly Cloudy
5:56 AM 42.8 °F 35.1 °F 42.8 °F 100% 30.01 in 1.5 mi WSW 16.1 mph 20.7 mph N/A   Overcast
6:16 AM 42.8 °F 35.1 °F 42.8 °F 100% 30.01 in 0.2 mi WSW 16.1 mph 24.2 mph N/A   Overcast
6:36 AM 42.8 °F 35.1 °F 42.8 °F 100% 30.01 in 0.8 mi WSW 16.1 mph - N/A   Overcast
6:56 AM 42.8 °F 34.8 °F 42.8 °F 100% 30.01 in 0.8 mi WSW 17.3 mph 20.7 mph N/A   Overcast
7:16 AM 44.6 °F 38.1 °F 42.8 °F 93% 30.01 in 10.0 mi WSW 13.8 mph 21.9 mph N/A   Overcast
7:36 AM 44.6 °F 37.4 °F 42.8 °F 93% 30.01 in 10.0 mi WSW 16.1 mph 21.9 mph N/A   Mostly Cloudy
7:56 AM 44.6 °F 37.2 °F 42.8 °F 93% 30.01 in 8.0 mi West 17.3 mph 20.7 mph N/A   Mostly Cloudy
8:16 AM 46.4 °F 40.1 °F 42.8 °F 87% 30.01 in 10.0 mi WSW 15.0 mph 20.7 mph N/A   Overcast
8:36 AM 46.4 °F 40.1 °F 42.8 °F 87% 30.01 in 10.0 mi West 15.0 mph - N/A   Scattered Clouds
8:56 AM 46.4 °F 40.7 °F 42.8 °F 87% 30.01 in 10.0 mi West 12.7 mph 19.6 mph N/A   Scattered Clouds
9:16 AM 48.2 °F - 42.8 °F 82% 30.01 in 10.0 mi WSW 12.7 mph - N/A   Partly Cloudy
9:36 AM 50.0 °F - 42.8 °F 76% 30.01 in 10.0 mi WSW 11.5 mph 16.1 mph N/A   Clear
9:56 AM 50.0 °F - 42.8 °F 76% 30.01 in 10.0 mi WSW 11.5 mph 16.1 mph N/A   Clear
10:16 AM 51.8 °F - 42.8 °F 71% 30.00 in 10.0 mi West 11.5 mph - N/A   Clear
10:36 AM 53.6 °F - 42.8 °F 67% 30.01 in 10.0 mi WSW 9.2 mph - N/A   Clear
10:56 AM 53.6 °F - 44.6 °F 72% 30.00 in 10.0 mi WSW 4.6 mph - N/A   Clear
11:16 AM 55.4 °F - 42.8 °F 63% 30.00 in 10.0 mi WSW 8.1 mph - N/A   Clear
11:36 AM 57.2 °F - 44.6 °F 63% 30.00 in 10.0 mi WSW 6.9 mph - N/A   Clear
11:56 AM 57.2 °F - 44.6 °F 63% 30.00 in 10.0 mi West 6.9 mph - N/A   Clear
12:16 PM 57.2 °F - 44.6 °F 63% 30.00 in 10.0 mi SW 10.4 mph - N/A   Clear
12:36 PM 59.0 °F - 42.8 °F 55% 30.00 in 10.0 mi SW 8.1 mph - N/A   Clear
12:56 PM 60.8 °F - 42.8 °F 52% 29.99 in 10.0 mi SW 8.1 mph - N/A   Clear
1:16 PM 60.8 °F - 42.8 °F 52% 29.99 in 10.0 mi SW 8.1 mph - N/A   Clear
1:36 PM 60.8 °F - 42.8 °F 52% 29.99 in 10.0 mi SW 11.5 mph - N/A   Clear
1:56 PM 60.8 °F - 42.8 °F 52% 29.99 in 10.0 mi WSW 9.2 mph 16.1 mph N/A   Clear
2:16 PM 60.8 °F - 41.0 °F 48% 29.99 in 10.0 mi WSW 12.7 mph 17.3 mph N/A   Clear
2:36 PM 62.6 °F - 39.2 °F 42% 29.99 in 10.0 mi WSW 15.0 mph 23.0 mph N/A   Clear
2:56 PM 60.8 °F - 42.8 °F 52% 29.99 in 10.0 mi WSW 13.8 mph 19.6 mph N/A   Clear
3:16 PM 62.6 °F - 39.2 °F 42% 29.98 in 10.0 mi SW 12.7 mph 20.7 mph N/A   Clear
3:36 PM 62.6 °F - 37.4 °F 39% 29.98 in 10.0 mi WSW 10.4 mph 20.7 mph N/A   Clear
3:56 PM 62.6 °F - 39.2 °F 42% 29.98 in 10.0 mi WSW 12.7 mph 20.7 mph N/A   Clear
4:16 PM 62.6 °F - 39.2 °F 42% 29.98 in 10.0 mi WSW 15.0 mph 21.9 mph N/A   Clear
4:36 PM 60.8 °F - 39.2 °F 45% 29.98 in 10.0 mi WSW 15.0 mph 21.9 mph N/A   Clear
4:56 PM 60.8 °F - 39.2 °F 45% 29.98 in 10.0 mi SW 12.7 mph 20.7 mph N/A   Clear
5:16 PM 60.8 °F - 39.2 °F 45% 29.98 in 10.0 mi SW 16.1 mph 21.9 mph N/A   Clear
5:36 PM 62.6 °F - 39.2 °F 42% 29.98 in 10.0 mi WSW 12.7 mph 18.4 mph N/A   Clear
5:56 PM 59.0 °F - 37.4 °F 45% 29.97 in 10.0 mi SW 10.4 mph 16.1 mph N/A   Clear
6:16 PM 59.0 °F - 37.4 °F 45% 29.97 in 10.0 mi WSW 11.5 mph 16.1 mph N/A   Clear
6:36 PM 60.8 °F - 35.6 °F 39% 29.97 in 10.0 mi WSW 9.2 mph - N/A   Clear
6:56 PM 60.8 °F - 37.4 °F 42% 29.97 in 10.0 mi WSW 13.8 mph 17.3 mph N/A   Clear
7:16 PM 60.8 °F - 35.6 °F 39% 29.96 in 10.0 mi WSW 9.2 mph 16.1 mph N/A   Clear
7:36 PM 60.8 °F - 35.6 °F 39% 29.96 in 10.0 mi WSW 10.4 mph - N/A   Clear
7:56 PM 60.8 °F - 35.6 °F 39% 29.96 in 10.0 mi WSW 10.4 mph 17.3 mph N/A   Clear
8:16 PM 57.2 °F - 33.8 °F 41% 29.95 in 10.0 mi WSW 9.2 mph - N/A   Clear
8:36 PM 57.2 °F - 35.6 °F 44% 29.96 in 10.0 mi WSW 11.5 mph 17.3 mph N/A   Clear
8:56 PM 55.4 °F - 33.8 °F 44% 29.96 in 10.0 mi WSW 12.7 mph 21.9 mph N/A   Clear
9:16 PM 55.4 °F - 37.4 °F 51% 29.96 in 10.0 mi SW 12.7 mph 16.1 mph N/A   Clear
9:36 PM 53.6 °F - 35.6 °F 51% 29.96 in 10.0 mi WSW 9.2 mph 17.3 mph N/A   Clear
9:56 PM 51.8 °F - 39.2 °F 62% 29.96 in 10.0 mi SW 8.1 mph - N/A   Clear
10:16 PM 48.2 °F - 39.2 °F 71% 29.96 in 10.0 mi WSW 9.2 mph - N/A   Clear
10:36 PM 46.4 °F 42.4 °F 39.2 °F 76% 29.97 in 10.0 mi WSW 8.1 mph - N/A   Scattered Clouds
10:56 PM 46.4 °F 41.5 °F 39.2 °F 76% 29.96 in 10.0 mi WSW 10.4 mph - N/A   Mostly Cloudy
11:16 PM 44.6 °F 38.4 °F 39.2 °F 81% 29.97 in 10.0 mi WSW 12.7 mph - N/A   Scattered Clouds
11:36 PM 42.8 °F 36.6 °F 39.2 °F 87% 29.97 in 10.0 mi WSW 11.5 mph - N/A   Clear
11:56 PM 42.8 °F 37.0 °F 37.4 °F 81% 29.97 in 10.0 mi WSW 10.4 mph - N/A   Clear